Regional Weather Roundup
Issued by NWS

Home | Current Version | Previous Version | Text Only | Print | Product List | Glossary Off
Versions: 1 2 3 4 5 6 7 8 9 10 11 12 13 14 15 16 17 18 19 20 21 22 23 24 25 26 27 28 29 30 31 32 33 34 35 36 37 38 39 40 41 42 43 44 45 46 47 48 49 50

000
ASUS43 KDMX 251308
RWRIA

WEATHER ROUNDUP FOR IOWA
NATIONAL WEATHER SERVICE DES MOINES IA
800 AM CDT THU AUG 25 2016

NOTE: "FAIR" INDICATES FEW OR NO CLOUDS BELOW 12,000 FEET WITH NO
SIGNIFICANT WEATHER AND/OR OBSTRUCTIONS TO VISIBILITY.

* - THESE STATIONS ARE NOT NWS STATIONS...THUS NOT UNDER NWS
QUALITY CONTROL.  THEY ALSO DO NOT REPORT WEATHER SUCH
AS PRECIPITATION OR FOG.

IAZ001>003-012>014-020>022-031>034-043>046-251400-
   NORTHWEST IOWA

CITY           SKY/WX    TMP DP  RH WIND       PRES   REMARKS
CARROLL *      SUNNY     59  59 100 NW3       30.09S
CHEROKEE *     SUNNY     58  58 100 CALM      30.10S
DENISON *      SUNNY     57  57 100 CALM      30.08F
LE MARS *      PTSUNNY   59  57  94 CALM      30.11S
ORANGE CITY *  PTSUNNY   61  57  88 NW5       30.10S
SHELDON *      PTSUNNY   57  57 100 CALM      30.08F
SIOUX CITY     MOSUNNY   60  57  89 W3        30.10S
SPENCER        SUNNY     59  56  89 CALM      30.08F
STORM LAKE *   SUNNY     63  55  77 N5        30.09F
$$

IAZ055>058-069>071-079>083-090>094-251400-
   SOUTHWEST IOWA

CITY           SKY/WX    TMP DP  RH WIND       PRES   REMARKS
ATLANTIC *     MOSUNNY   61  59  94 N3        30.11R
AUDUBON *      SUNNY     61  57  88 CALM      30.10S
CLARINDA *       N/A     66  64  94 MISG      30.11R
COUNCIL BLFS * CLOUDY    59  59 100 CALM      30.11R
CRESTON *      MOSUNNY   66  63  88 NE6       30.09S
HARLAN  *      SUNNY     59  59 100 CALM      30.14R
LAMONI         CLOUDY    67  65  93 N12       30.05S
RED OAK *      CLOUDY    63  61  94 N6        30.09R
SHENANDOAH *   CLOUDY    63 N/A N/A CALM      30.10R
$$

IAZ047>049-059>061-072>074-084-251400-
   CENTRAL IOWA

CITY           SKY/WX    TMP DP  RH WIND       PRES   REMARKS
AMES           SUNNY     65  63  93 N6        30.07F
ANKENY *         N/A    N/A N/A N/A MISG        N/A
BOONE *        SUNNY     63  61  94 N5        30.07S
CHARITON *       N/A     66  64  94 MISG      30.06S
DES MOINES     MOSUNNY   68  63  84 VRB3      30.06F
GRINNELL*      MOSUNNY   66  62  86 N5        30.06F
KNOXVILLE *    CLOUDY    68  63  83 N6        30.05S
MARSHALLTOWN   CLOUDY    66  63  90 NW3       30.06S
NEWTON *       SUNNY     66  63  88 N6        30.05F
PERRY *          N/A     62  62  99 NW3       30.09R
$$

IAZ004>006-015-016-023>025-035-036-251400-
   NORTH CENTRAL IOWA

CITY           SKY/WX    TMP DP  RH WIND       PRES   REMARKS
ALGONA *       SUNNY     63  57  82 CALM      30.08F
ESTHERVILLE    SUNNY     60  58  92 W5        30.07F
FORT DODGE *   SUNNY     61  57  88 CALM      30.10R
MASON CITY     SUNNY     62  59  90 NW3       30.09S
FOREST CITY *    N/A    N/A N/A N/A MISG        N/A
WEBSTER CITY * SUNNY     63  61  94 NW3       30.07S
IOWA FALLS *     N/A     62  60  93 CALM      30.08F
$$

IAZ007>011-017>019-026>030-037>042-050>054-066-251400-
   NORTHEAST IOWA

CITY           SKY/WX    TMP DP  RH WIND       PRES   REMARKS
CEDAR RAPIDS   MOSUNNY   65  65 100 NW5       30.05R
CHARLES CITY * SUNNY     63  63 100 CALM      30.08R
CLINTON *      CLOUDY    69  65  86 N8        30.04R
DECORAH *      SUNNY     64  63  94 CALM      30.05S
DUBUQUE        MOSUNNY   67  61  81 N8        30.05R
MONTICELLO *   CLOUDY    66  63  88 N5        30.04S
OELWEIN *      CLOUDY    64  63  94 CALM      30.07S
WATERLOO       PTSUNNY   64  61  90 NW3       30.05S
$$

IAZ064-065-067-068-078-251400-
   EAST CENTRAL IOWA

CITY           SKY/WX    TMP DP  RH WIND       PRES   REMARKS
DAVENPORT      CLOUDY    69  67  93 CALM      30.04R
IOWA CITY      PTSUNNY   70  62  76 N7        30.05S
MUSCATINE *    CLOUDY    70  66  88 N5        30.03F
QUAD CITIES    CLOUDY    73  66  78 N5        30.03R
$$

IAZ062-063-075>077-085>089-095>099-251400-
   SOUTHEAST IOWA

CITY           SKY/WX    TMP DP  RH WIND       PRES   REMARKS
BURLINGTON     CLOUDY    70  70 100 NW3       30.03S
FAIRFIELD *    CLOUDY    68  66  94 N6        30.04S
FORT MADISON * CLOUDY    70  70 100 CALM      30.03F
KEOKUK *       CLOUDY    72  72 100 CALM      30.01F
OSKALOOSA *    CLOUDY    66  65  97 N5        30.06R
CENTERVILLE *    N/A     68  68 100 CALM      30.05F
OTTUMWA        CLOUDY    70  65  84 N7        30.04F
WASHINGTON *   CLOUDY    70  66  88 N7        30.05F
$$

ABBREVIATIONS USED IN REMARKS
   TC - TEMPERATURES IN CELSIUS
  WCI - WIND CHILL INDEX
   HX - HEAT INDEX
  VSB - VISIBILITY
$$




USA.gov is the U.S. government's official web portal to all federal, state and local government web resources and services.